World > North America > United States > New York

Mohawk, New York Regional Weather

Lat: 43.01N, Lon: 75.01W
Wx Zone: NYZ038
Feedback

Mohawk, NY Regional Weather

Expires:201907220000;;427460
ASUS41 KGYX 212310
RWRGYX
WEATHER ROUNDUP FOR MAINE AND NEW HAMPSHIRE
NATIONAL WEATHER SERVICE GRAY ME
700 PM EDT SUN JUL 21 2019


MAZ007-012-024-CTZ003-RIZ002-NYZ038-NYZ072-220000-
SOUTHERN NEW ENGLAND AND NY
  
CITY           SKY/WX    TMP DP  RH WIND       PRES   REMARKS
BOSTON         FAIR      94  65  38 W20G25    29.72R HX  96           
WORCESTER      FAIR      85  67  54 NW14G20   29.81R                  
NANTUCKET      FAIR      78  72  81 W14       29.75R                  
PROVIDENCE     FAIR      94  72  48 NW8       29.74R HX 102           
HARTFORD       FAIR      93  70  46 N7        29.75R HX  99           
ALBANY         PTSUNNY   85  61  44 NW17G25   29.81R                  
NEW YORK CITY  FAIR      96  70  42 W14       29.76R HX 102           
$$


SKY/WX - Weather  TMP - Temperature  DP - Dew Point  RH - Relative Humidity
WIND - Wind Direction/Speed PRES - Barometric Pressure VSB - Visibility
WCI - Wind Chill Index E13G22 Wind - East Wind 13 mph/Gusts of 22 mph